TimeCST,TemperatureF,Dew PointF,Humidity,Sea Level PressureIn,VisibilityMPH,Wind Direction,Wind SpeedMPH,Gust SpeedMPH,PrecipitationIn,Events,Conditions,WindDirDegrees,DateUTC
12:15 AM,53.6,48.6,83,30.13,10.0,Calm,Calm,-,N/A,,Mostly Cloudy,0,2012-11-05 06:15:00
12:35 AM,53.2,48.6,84,30.13,10.0,Calm,Calm,-,N/A,,Mostly Cloudy,0,2012-11-05 06:35:00
12:55 AM,53.8,48.9,84,30.13,10.0,Calm,Calm,-,N/A,,Overcast,0,2012-11-05 06:55:00
1:15 AM,54.1,48.4,81,30.13,10.0,Calm,Calm,-,N/A,,Overcast,0,2012-11-05 07:15:00
1:35 AM,54.0,48.6,82,30.13,10.0,Calm,Calm,-,N/A,,Overcast,0,2012-11-05 07:35:00
1:55 AM,53.8,48.6,82,30.12,10.0,Calm,Calm,-,N/A,Rain,Light Rain,0,2012-11-05 07:55:00
2:15 AM,54.1,48.4,81,30.11,10.0,Calm,Calm,-,N/A,,Overcast,0,2012-11-05 08:15:00
2:35 AM,53.8,48.7,83,30.11,10.0,Calm,Calm,-,N/A,Thunderstorm,Thunderstorm,0,2012-11-05 08:35:00
2:55 AM,53.6,48.9,84,30.11,10.0,NNW,3.5,-,N/A,Thunderstorm,Overcast,330,2012-11-05 08:55:00
3:15 AM,54.1,48.4,81,30.10,10.0,Calm,Calm,-,N/A,,Overcast,0,2012-11-05 09:15:00
3:35 AM,53.8,48.6,82,30.11,10.0,Calm,Calm,-,N/A,Thunderstorm,Overcast,0,2012-11-05 09:35:00
3:55 AM,53.6,48.9,84,30.11,10.0,Calm,Calm,-,N/A,,Overcast,0,2012-11-05 09:55:00
4:15 AM,53.8,49.1,84,30.10,10.0,Calm,Calm,-,N/A,,Overcast,0,2012-11-05 10:15:00
4:35 AM,53.6,49.1,85,30.10,10.0,Calm,Calm,-,N/A,,Overcast,0,2012-11-05 10:35:00
4:55 AM,53.4,49.6,87,30.10,10.0,Calm,Calm,-,N/A,,Overcast,0,2012-11-05 10:55:00
5:15 AM,53.6,50.2,88,30.10,10.0,Calm,Calm,-,N/A,,Overcast,0,2012-11-05 11:15:00
5:35 AM,53.4,50.4,89,30.10,10.0,Calm,Calm,-,N/A,,Overcast,0,2012-11-05 11:35:00
5:55 AM,53.6,49.8,87,30.09,10.0,Calm,Calm,-,N/A,,Overcast,0,2012-11-05 11:55:00
6:15 AM,53.6,50.2,88,30.10,10.0,Calm,Calm,-,N/A,Thunderstorm,Overcast,0,2012-11-05 12:15:00
6:35 AM,53.6,49.6,86,30.09,10.0,Calm,Calm,-,N/A,,Overcast,0,2012-11-05 12:35:00
6:55 AM,53.6,49.8,87,30.09,10.0,Calm,Calm,-,N/A,,Overcast,0,2012-11-05 12:55:00
7:15 AM,53.8,50.0,87,30.10,10.0,Calm,Calm,-,N/A,,Overcast,0,2012-11-05 13:15:00
7:35 AM,53.8,50.2,88,30.10,10.0,Calm,Calm,-,N/A,,Overcast,0,2012-11-05 13:35:00
7:55 AM,54.5,50.5,86,30.09,10.0,Calm,Calm,-,N/A,,Overcast,0,2012-11-05 13:55:00
8:15 AM,54.7,49.6,83,30.09,10.0,SSE,3.5,-,N/A,,Overcast,150,2012-11-05 14:15:00
8:35 AM,55.4,49.6,81,30.09,10.0,SSE,3.5,-,N/A,,Overcast,160,2012-11-05 14:35:00
8:55 AM,55.4,50.0,82,30.10,10.0,Calm,Calm,-,N/A,,Overcast,0,2012-11-05 14:55:00
9:15 AM,55.9,50.2,81,30.09,10.0,ESE,3.5,-,N/A,,Overcast,120,2012-11-05 15:15:00
9:35 AM,56.5,50.9,82,30.09,10.0,South,3.5,-,N/A,,Overcast,180,2012-11-05 15:35:00
9:55 AM,57.7,51.6,80,30.08,10.0,South,3.5,-,N/A,,Overcast,180,2012-11-05 15:55:00
10:15 AM,57.6,51.6,81,30.08,10.0,Calm,Calm,-,N/A,,Overcast,0,2012-11-05 16:15:00
10:35 AM,57.9,52.2,81,30.08,10.0,Calm,Calm,-,N/A,,Overcast,0,2012-11-05 16:35:00
10:55 AM,59.2,52.9,80,30.07,10.0,Calm,Calm,-,N/A,,Overcast,0,2012-11-05 16:55:00
11:15 AM,60.1,54.0,80,30.07,10.0,Calm,Calm,-,N/A,,Overcast,0,2012-11-05 17:15:00
11:35 AM,60.8,54.1,79,30.04,10.0,Calm,Calm,-,N/A,,Overcast,0,2012-11-05 17:35:00
11:55 AM,61.3,54.5,78,30.04,10.0,WNW,4.6,-,N/A,,Overcast,300,2012-11-05 17:55:00
12:15 PM,61.9,54.7,77,30.03,10.0,NNW,3.5,-,N/A,,Overcast,340,2012-11-05 18:15:00
12:35 PM,63.0,55.2,76,30.01,10.0,Calm,Calm,-,N/A,,Overcast,0,2012-11-05 18:35:00
12:55 PM,63.3,55.4,75,30.00,10.0,Calm,Calm,-,N/A,,Overcast,0,2012-11-05 18:55:00
1:15 PM,63.5,55.8,76,30.00,10.0,Calm,Calm,-,N/A,,Overcast,0,2012-11-05 19:15:00
1:35 PM,63.5,55.8,76,30.00,10.0,Calm,Calm,-,N/A,,Overcast,0,2012-11-05 19:35:00
1:55 PM,63.1,56.1,78,29.99,10.0,ENE,4.6,-,N/A,,Overcast,70,2012-11-05 19:55:00
2:15 PM,62.6,56.3,80,29.99,10.0,Calm,Calm,-,N/A,,Overcast,0,2012-11-05 20:15:00
2:35 PM,62.8,56.5,80,30.00,10.0,Calm,Calm,-,N/A,,Overcast,0,2012-11-05 20:35:00
2:55 PM,62.6,56.5,80,29.99,10.0,Calm,Calm,-,N/A,,Overcast,0,2012-11-05 20:55:00
3:15 PM,63.0,56.7,80,29.99,10.0,East,3.5,-,N/A,,Scattered Clouds,80,2012-11-05 21:15:00
3:35 PM,62.4,56.8,82,29.99,10.0,Calm,Calm,-,N/A,Rain,Light Rain,0,2012-11-05 21:35:00
3:55 PM,61.9,57.0,84,29.99,10.0,SE,3.5,-,N/A,,Light Drizzle,130,2012-11-05 21:55:00
4:15 PM,61.3,57.9,89,30.01,10.0,North,4.6,-,N/A,,Mostly Cloudy,10,2012-11-05 22:15:00
4:35 PM,61.0,58.1,90,30.00,10.0,ENE,3.5,-,N/A,,Mostly Cloudy,70,2012-11-05 22:35:00
4:55 PM,59.9,58.3,94,29.99,7.0,Calm,Calm,-,N/A,,Scattered Clouds,0,2012-11-05 22:55:00
5:15 PM,58.6,58.6,100,30.00,5.0,Calm,Calm,-,N/A,,Clear,0,2012-11-05 23:15:00
5:35 PM,57.7,57.7,100,30.01,5.0,Calm,Calm,-,N/A,,Clear,0,2012-11-05 23:35:00
5:55 PM,56.5,56.5,100,30.02,3.0,Calm,Calm,-,N/A,,Clear,0,2012-11-05 23:55:00
6:15 PM,55.4,55.4,100,30.02,4.0,Calm,Calm,-,N/A,,Clear,0,2012-11-06 00:15:00
6:35 PM,54.3,54.3,100,30.02,2.0,Calm,Calm,-,N/A,,Clear,0,2012-11-06 00:35:00
6:55 PM,54.1,54.1,100,30.02,1.0,Calm,Calm,-,N/A,,Overcast,0,2012-11-06 00:55:00
7:15 PM,53.4,53.4,100,30.03,0.5,Calm,Calm,-,N/A,Fog,Fog,0,2012-11-06 01:15:00
7:35 PM,54.0,54.0,100,30.03,0.2,Calm,Calm,-,N/A,Fog,Fog,0,2012-11-06 01:35:00
7:55 PM,54.0,54.0,100,30.03,0.2,Calm,Calm,-,N/A,Fog,Fog,0,2012-11-06 01:55:00
8:15 PM,53.4,53.4,100,30.04,0.2,Calm,Calm,-,N/A,Fog,Fog,0,2012-11-06 02:15:00
8:35 PM,52.2,52.2,100,30.04,0.8,Calm,Calm,-,N/A,,Overcast,0,2012-11-06 02:35:00
8:55 PM,52.3,52.3,100,30.04,0.2,Calm,Calm,-,N/A,Fog,Fog,0,2012-11-06 02:55:00
9:15 PM,52.3,52.3,100,30.04,0.2,Calm,Calm,-,N/A,Fog,Fog,0,2012-11-06 03:15:00
9:35 PM,52.3,52.3,100,30.04,0.2,Calm,Calm,-,N/A,Fog,Fog,0,2012-11-06 03:35:00
9:55 PM,52.7,52.7,100,30.04,0.2,Calm,Calm,-,N/A,Fog,Fog,0,2012-11-06 03:55:00
10:15 PM,52.7,52.7,100,30.04,0.2,Calm,Calm,-,N/A,Fog,Fog,0,2012-11-06 04:15:00
10:35 PM,53.1,53.1,100,30.04,0.2,Calm,Calm,-,N/A,Fog,Fog,0,2012-11-06 04:35:00
10:55 PM,53.6,53.6,100,30.03,0.2,Calm,Calm,-,N/A,,Light Drizzle,0,2012-11-06 04:55:00
11:15 PM,53.6,53.6,100,30.03,0.2,Calm,Calm,-,N/A,,Light Drizzle,0,2012-11-06 05:15:00
11:35 PM,53.6,53.6,100,30.03,0.2,Calm,Calm,-,N/A,,Light Drizzle,0,2012-11-06 05:35:00
11:55 PM,53.2,53.2,100,30.03,0.2,Calm,Calm,-,N/A,Fog,Fog,0,2012-11-06 05:55:00